Flag for Kazakhstan Weather past 2 weeks in Almaty, Kazakhstan

Now
34 °F

Passing clouds.


Feels Like: 27 °F
Forecast: 18 / 46 °F
Wind: 8 mph from North

Location: Almaty Airport

Current Time: Mar 1, 2015 at 11:30:55 AM

Latest Report: Mar 1, 2015 at 11:00 AM


Visibility: 2 mi

Pressure: 30.33 "Hg

Humidity: 65%

Dew point: 23 °F

Location of AlmatyLocation

Historic Weather in Almaty — Graph

°F

Almaty temperature yesterday

Maximum temperature yesterday: 41 °F (at 4:00 PM)
Minimum temperature yesterday: 21 °F (at 3:30 AM)
Average temperature yesterday: 30 °F

Past Weeks' High & Low Weather Summary

 TemperatureHumidityPressure
High48 °F (Feb 16, 1:00 PM)93% (Feb 15, 9:30 AM)30.48 "Hg (Feb 15, 9:30 AM)
Low21 °F (Feb 27, 6:30 AM)33% (Feb 28, 4:00 PM)29.89 "Hg (Feb 15, 5:30 PM)
Average34 °F75%30.17 "Hg
* Reported Feb 14 10:00 AM — Mar 1 10:30 AM, Almaty, Weather by CustomWeather, © 2015

Note: Actual official high and low records may vary slightly from our data, if they occured in-between our weather recording intervals... More about our weather records

Advertising

Almaty weather history for previous 24 hours

 ConditionsComfort  
Time TempWeatherWind HumidityBarometerVisibility
10:30 AM
Sun, Mar 1
32 °FPassing clouds.3 mph69%30.33 "Hg2 mi
10:00 AM32 °FIce fog.3 mph69%30.33 "Hg2 mi
9:30 AM30 °FIce fog.1 mph69%30.36 "Hg2 mi
9:00 AM30 °FIce fog.No wind75%30.36 "Hg1 mi
8:30 AM25 °FIce fog.3 mph80%30.36 "Hg1 mi
8:00 AM21 °FIce fog.1 mph86%30.33 "Hg1 mi
7:30 AM21 °FIce fog.1 mph86%30.33 "Hg1 mi
7:00 AM21 °FIce fog.3 mph86%30.33 "Hg1 mi
6:30 AM21 °FIce fog.3 mph86%30.33 "Hg2 mi
6:00 AM21 °FIce fog.1 mph86%30.33 "Hg2 mi
5:30 AM21 °FIce fog.No wind93%30.33 "Hg1 mi
5:00 AM21 °FIce fog.1 mph86%30.33 "Hg1 mi
4:30 AM23 °FIce fog.3 mph86%30.33 "Hg1 mi
4:00 AM23 °FIce fog.1 mph86%30.36 "Hg1 mi
3:30 AM23 °FIce fog.3 mph86%30.36 "Hg1 mi
2:30 AM25 °FIce fog.No wind86%30.36 "Hg1 mi
2:00 AM25 °FIce fog.1 mph86%30.39 "Hg1 mi
1:30 AM25 °FIce fog.3 mph86%30.39 "Hg1 mi
1:00 AM27 °FIce fog.3 mph80%30.39 "Hg1 mi
12:30 AM27 °FIce fog.6 mph80%30.39 "Hg1 mi
12:00 AM27 °FIce fog.3 mph80%30.39 "Hg1 mi
11:30 PM
Sat, Feb 28
27 °FIce fog.1 mph86%30.42 "Hg1 mi
11:00 PM27 °FIce fog.1 mph80%30.42 "Hg1 mi
10:30 PM28 °FIce fog.3 mph80%30.42 "Hg1 mi
10:00 PM28 °FIce fog.3 mph80%30.42 "Hg1 mi
9:30 PM30 °FIce fog.3 mph75%30.42 "Hg1 mi
9:00 PM30 °FIce fog.3 mph75%30.42 "Hg1 mi
8:30 PM30 °FIce fog.6 mph75%30.42 "Hg1 mi
8:00 PM32 °FIce fog.3 mph69%30.42 "Hg2 mi
7:30 PM32 °FPassing clouds.6 mph69%30.42 "HgN/A
7:00 PM34 °FPassing clouds.3 mph60%30.42 "HgN/A
6:30 PM36 °FScattered clouds.6 mph56%30.42 "HgN/A
6:00 PM37 °FScattered clouds.6 mph45%30.39 "HgN/A
5:30 PM39 °FScattered clouds.3 mph42%30.39 "HgN/A
5:00 PM39 °FScattered clouds.3 mph39%30.39 "HgN/A
4:30 PM41 °FScattered clouds.3 mph36%30.39 "HgN/A
4:00 PM41 °FScattered clouds.6 mph33%30.39 "HgN/A
3:30 PM39 °FScattered clouds.6 mph39%30.39 "HgN/A
3:00 PM39 °FScattered clouds.3 mph42%30.42 "HgN/A
2:30 PM39 °FScattered clouds.3 mph42%30.42 "HgN/A
2:00 PM39 °FPassing clouds.3 mph42%30.42 "HgN/A
1:30 PM37 °FPassing clouds.3 mph45%30.42 "HgN/A
1:00 PM37 °FPassing clouds.3 mph45%30.42 "HgN/A
12:30 PM36 °FPassing clouds.3 mph52%30.42 "HgN/A
12:00 PM36 °FPassing clouds.3 mph52%30.45 "HgN/A
11:30 AM36 °FPassing clouds.3 mph56%30.45 "HgN/A
11:00 AM32 °FPassing clouds.3 mph64%30.45 "Hg3 mi
Weather by CustomWeather, © 2015

See weather overviewHow to use our weather pages